Showing default

TRANSIT 5B-2, 704

Orbit data source: Space-Track

TRANSIT 5B-2, 704 is a payload satellite owned by USN BuWeps (US) in LEO that was launched on Thu, 05 Dec 1963 UTC via a THOR ABLESTAR launch vehicle from the Air Force Western Test Range (AFWTR). Payload-class satellites include a variety of spacecraft equipped with specific instruments for various scientific and technological missions. These include communications satellites like Starlink; space stations such as the ISS; scientific satellites like the Hubble; Earth observation satellites from companies like Planet Labs, Umbra, and HawkEye 360; GPS; miniature CubeSats for education and research; and military/defense satellites.

Loading next visibility...
Identifier
704, 1963-049B
Orbit
LEO
Country
Flag of USUS
Related business
Manufacturer
APL
Mission
Defense Navigation
Bus & Motor
TRANSIT 5, Unknown motor
Mass
75 kg wet, 75 kg dry
Launch date (UTC)
1963-12-05 (62 years ago)
Launch vehicle
THOR ABLESTAR
Launch site
Air Force Western Test Range (AFWTR)
Object type
Payload
Rocket body
Debris
Shape & HBR
Oct Cyl + Cyl + 1 Rod, 15.0 m
Radar Cross Section
0.334 m², Large (>1 m²)

Expand to show TLE details & history
Last TLE update: 13 hours ago

TLE from 13 hours ago
0 TRANSIT 5B-2
1 00704U 63049B   25258.77595931  .00000063  00000-0  88158-4 0  9994
2 00704  89.9134  72.6524 0035194  11.5908   0.0700 13.47088758 34385
Epoch: 2025-09-15T18:37Z
TLE epoch observation values (Epoch: 2025-09-15T18:37:22.884Z)
Latitude
11.61561°
Longitude
158.34899°
Altitude
1,058.919 km
Speed
7.336 km/s
True Right ascension
04h 50m 40s
True Declination
11° 33' 03"
Sunlit
Object was in daylight at epoch
Visualization orbit readout
Latitude
Unknown
Longitude
Unknown
Altitude
Unknown
Speed
Unknown
Apparent Right ascension
Unknown
Apparent Declination
Unknown
Sunlit
N/A
Visualization observer readout
Local Sidereal Time
00:16:26
Azimuth
Unknown
Elevation
Unknown
Doppler factor
Unknown
Orbital elements
Apogee altitude
1,106.291 km
Perigee altitude
1,053.795 km
Semi-major axis
7,458.18 km
Eccentricity
0.00352
Inclination
89.9134°
RAAN
72.6524°
Arg. of periapsis
11.5908°
True anomaly
0.07049°
Mean anomaly
0.07°
Eccentric anomaly
0.07025°
Mean motion
3.36972 °/min
Orbital period
106.83 mins
BSTAR
0.000088158
Loading maneuver chart data...
Computing Atmospheric mass density...
Loading historical data...
Loading historical data...
Loading historical data...
Loading historical data...
Loading historical data...
Loading historical data...
Loading historical data...

Documentation

Showing up to 5 results
|